Key West, FL

4:27 AM EDT on May 23, 2018 (GMT -0400)
Key West International

Weather History for KEYW - June, 2013

Change the Weather History Date:

Sunday, June 2, 2013

  Actual Average Record
Temperature  
Mean Temperature 80 °F 82 °F  
Max Temperature 84 °F 87 °F 91 °F (1995)
Min Temperature 75 °F 78 °F 65 °F (1932)
Degree Days  
Heating Degree Days 0 0  
Month to date heating degree days 0 0  
Since 1 June heating degree days 0 0  
Since 1 July heating degree days 28 73  
Cooling Degree Days 15 17  
Month to date cooling degree days 33 34  
Year to date cooling degree days 1662 1464  
Since 1 June cooling degree days 33 34  
Growing Degree Days 30 (Base 50)    
Moisture  
Dew Point 73 °F    
Average Humidity 79    
Maximum Humidity 88    
Minimum Humidity 69    
Precipitation  
Precipitation 0.62 in 0.14 in 3.96 in (1930)
Month to date precipitation 0.65 0.28  
Year to date precipitation 15.44 10.91  
Snow  
Snow 0.00 in - - ()
Month to date snowfall 0.0  
Since 1 June snowfall 0.0  
Since 1 July snowfall 0.0  
Snow Depth 0.00 in    
Sea Level Pressure  
Sea Level Pressure 29.98 in    
Wind  
Wind Speed 7 mph (SSE)    
Max Wind Speed 23 mph    
Max Gust Speed 36 mph    
Visibility 8 miles    
Events Rain    
T = Trace of Precipitation, MM = Missing Value Source: NWS Daily Summary

Daily Weather History Graph

Daily Weather History Graph

Search for Another Location

Airport or City:

Astronomy

Jun. 02, 2013 Rise Set
Actual Time 6:37 AM EDT 8:12 PM EDT
Civil Twilight 6:12 AM EDT 8:37 PM EDT
Nautical Twilight 5:42 AM EDT 9:08 PM EDT
Astronomical Twilight 5:10 AM EDT 9:39 PM EDT
Moon 2:31 AM EDT (6/2) 3:10 PM EDT (6/2)
Length of Visible Light 14h 25m
Length of Day
13h 34m
Waning Crescent, 31% of the Moon is Illuminated
Jun 2
Waning Crescent
Jun 8
New
Jun 16
First Quarter
Jun 23
Full
Jun 30
Last Quarter

Hourly Weather History & Observations

Time (EDT) Temp. Heat Index Dew Point Humidity Pressure Visibility Wind Dir Wind Speed Gust Speed Precip Events Conditions
12:53 AM 80.1 °F 84.2 °F 73.0 °F 79% 29.99 in 10.0 mi South 6.9 mph - N/A   Clear
1:53 AM 80.1 °F 84.2 °F 73.0 °F 79% 29.98 in 10.0 mi South 8.1 mph - N/A   Clear
2:53 AM 80.1 °F 84.2 °F 73.0 °F 79% 29.96 in 10.0 mi SSE 6.9 mph - N/A   Clear
3:53 AM 80.1 °F 84.2 °F 73.0 °F 79% 29.96 in 10.0 mi SE 4.6 mph - N/A   Clear
4:53 AM 80.1 °F 84.5 °F 73.9 °F 81% 29.95 in 10.0 mi East 3.5 mph - N/A   Clear
5:53 AM 80.1 °F 84.5 °F 73.9 °F 81% 29.96 in 10.0 mi ESE 4.6 mph - N/A   Partly Cloudy
6:51 AM 80.6 °F 85.4 °F 73.4 °F 79% 29.98 in 10.0 mi East 4.6 mph - N/A   Mostly Cloudy
6:53 AM 80.1 °F 85.1 °F 75.0 °F 85% 29.98 in 10.0 mi East 3.5 mph - N/A   Mostly Cloudy
7:13 AM 80.6 °F 86.2 °F 75.2 °F 84% 29.99 in 10.0 mi ENE 3.5 mph - N/A   Scattered Clouds
7:53 AM 81.0 °F 86.7 °F 75.0 °F 82% 30.00 in 10.0 mi East 4.6 mph - N/A   Partly Cloudy
8:53 AM 82.0 °F 88.6 °F 75.0 °F 79% 30.00 in 10.0 mi East 5.8 mph - N/A   Clear
9:53 AM 82.9 °F 90.2 °F 75.0 °F 77% 30.00 in 10.0 mi East 9.2 mph - N/A   Partly Cloudy
10:53 AM 82.9 °F 90.2 °F 75.0 °F 77% 29.99 in 10.0 mi East 10.4 mph - N/A   Mostly Cloudy
11:53 AM 82.0 °F 86.7 °F 72.0 °F 71% 30.01 in 10.0 mi East 9.2 mph - N/A   Mostly Cloudy
12:32 PM 75.2 °F - 71.6 °F 89% 30.02 in 1.8 mi SSW 20.7 mph 35.7 mph 0.04 in Rain Heavy Rain
12:37 PM 75.2 °F - 71.6 °F 89% 30.02 in 1.2 mi SSW 19.6 mph 28.8 mph 0.12 in Rain Heavy Rain
12:48 PM 75.2 °F - 73.4 °F 94% 30.01 in 1.5 mi SSW 11.5 mph 23.0 mph 0.25 in Rain Heavy Rain
12:53 PM 75.9 °F - 73.0 °F 91% 30.02 in 2.0 mi SSW 15.0 mph 19.6 mph 0.28 in Rain Heavy Rain
12:59 PM 75.2 °F - 73.4 °F 94% 30.01 in 3.0 mi South 11.5 mph 19.6 mph 0.03 in Rain Heavy Rain
1:27 PM 75.2 °F - 73.4 °F 94% 30.01 in 2.5 mi SSW 15.0 mph - 0.16 in Rain Heavy Rain
1:34 PM 75.2 °F - 71.6 °F 89% 30.00 in 4.0 mi SSW 15.0 mph - 0.19 in Rain Heavy Rain
1:41 PM 75.2 °F - 71.6 °F 89% 30.01 in 5.0 mi SSW 15.0 mph - 0.20 in Rain Rain
1:53 PM 75.9 °F - 72.0 °F 87% 30.01 in 6.0 mi SSW 11.5 mph - 0.22 in Rain Rain
2:53 PM 77.0 °F - 72.0 °F 84% 29.99 in 7.0 mi South 8.1 mph - 0.08 in Rain Rain
3:53 PM 77.0 °F - 73.0 °F 88% 29.97 in 10.0 mi East 5.8 mph - 0.04 in Rain Light Rain
4:03 PM 77.0 °F - 73.4 °F 89% 29.98 in 10.0 mi ESE 6.9 mph - 0.00 in Rain Light Rain
4:53 PM 77.0 °F - 73.0 °F 88% 29.96 in 10.0 mi SE 9.2 mph - 0.00 in Rain Light Rain
5:53 PM 78.1 °F - 72.0 °F 81% 29.94 in 10.0 mi ESE 8.1 mph - 0.00 in   Clear
6:53 PM 79.0 °F - 71.1 °F 77% 29.94 in 10.0 mi South 6.9 mph - N/A   Clear
7:53 PM 79.0 °F - 72.0 °F 79% 29.95 in 10.0 mi SSE 5.8 mph - N/A   Overcast
8:53 PM 79.0 °F - 73.0 °F 82% 29.96 in 10.0 mi SE 6.9 mph - N/A   Clear
9:53 PM 80.1 °F 84.2 °F 73.0 °F 79% 29.98 in 10.0 mi SSE 5.8 mph - N/A   Clear
10:53 PM 79.0 °F - 73.9 °F 84% 29.99 in 10.0 mi South 8.1 mph - N/A   Mostly Cloudy
11:28 PM 78.8 °F - 73.4 °F 83% 29.99 in 10.0 mi South 9.2 mph - N/A   Mostly Cloudy
11:53 PM 79.0 °F - 73.9 °F 84% 29.99 in 10.0 mi SE 4.6 mph - N/A   Mostly Cloudy